Location: Neuvy Saint Sepulchre
(46.5953°N, 1.8122°E)
Time: 10:50:42
(UTC+02:00)

ISS - Pass Details

Date: 24 March 2024
Orbit: 413 x 419 km, 51.6° (Epoch: 13 April)

Event Time Altitude Azimuth Distance (km) Brightness Sun altitude
Rises 19:47:11 0° 286° (WNW) 2,362 2.5 -6.9°
Reaches altitude 10° 19:49:25 10° 296° (WNW) 1,500 0.5 -7.3°
Maximum altitude 19:52:31 33° 3° (N) 726 -2.5 -7.8°
Drops below altitude 10° 19:55:37 10° 70° (ENE) 1,505 -1.5 -8.3°
Enters shadow 19:55:54 - 72° (ENE) 1,608 -1.3 -8.4°
